Back to Top

Language: 

My Weather Underground Personal Weather Station Historical Data with Graphs...

Delerius Weather Station Historical Data
Daily Summary for February 7, 2017 Units:  Metric    English   Both
« Previous Day
Next Day »
Daily Weekly Monthly Yearly Custom
  High: Low: Average:
Temperature: 9.9 °C 3.3 °C 5.4 °C
Dew Point: 7 °C 2.7 °C 4.4 °C
Humidity: 98 % 78 % 93 %
Wind Speed: 17.7 km/h 0 km/h 4.3 km/h
Wind Gust: 32.2 km/h - -
Wind:- - SSE
Pressure: 1020.9 hPa 1009.4 hPa -
Precipitation: 0.51 mm    
Historical Graphs
 
 
Tabular Data for February 7, 2017
Time Temperature Dew Point Pressure Wind Wind Speed Wind Gust Humidity Rainfall Rate (Hourly) solar Conditions
00:00 3.4 °C 2.9 °C 1010.7 hPa SE 14.5 km/h 14.5 km/h 97 % 0 mm 0 W/m2
00:05 3.4 °C 2.9 °C 1010.7 hPa SE 17.7 km/h 17.7 km/h 97 % 0 mm 0 W/m2
00:15 3.4 °C 2.9 °C 1010.7 hPa SE 14.5 km/h 16.1 km/h 97 % 0 mm 0 W/m2
00:25 3.4 °C 2.9 °C 1011.1 hPa ESE 14.5 km/h 14.5 km/h 97 % 0 mm 0 W/m2
00:30 3.4 °C 2.9 °C 1010.7 hPa SE 16.1 km/h 17.7 km/h 97 % 0 mm 0 W/m2
00:35 3.3 °C 2.9 °C 1010.7 hPa SSE 16.1 km/h 17.7 km/h 97 % 0 mm 0 W/m2
00:40 3.3 °C 2.9 °C 1010.7 hPa ESE 14.5 km/h 14.5 km/h 97 % 0 mm 0 W/m2
00:45 3.3 °C 2.9 °C 1010.7 hPa SSE 12.9 km/h 17.7 km/h 97 % 0 mm 0 W/m2
00:50 3.3 °C 2.9 °C 1010.7 hPa SE 12.9 km/h 17.7 km/h 97 % 0 mm 0 W/m2
01:00 3.3 °C 2.9 °C 1010.4 hPa SE 12.9 km/h 12.9 km/h 97 % 0 mm 0 W/m2
01:05 3.3 °C 2.9 °C 1010.4 hPa SSE 12.9 km/h 14.5 km/h 97 % 0 mm 0 W/m2
01:10 3.3 °C 2.9 °C 1010.4 hPa SE 12.9 km/h 32.2 km/h 97 % 0 mm 0 W/m2
01:15 3.3 °C 2.9 °C 1010.4 hPa SE 14.5 km/h 32.2 km/h 97 % 0 mm 0 W/m2
01:20 3.3 °C 2.9 °C 1010.4 hPa SSE 16.1 km/h 32.2 km/h 97 % 0 mm 0 W/m2
01:30 3.3 °C 2.9 °C 1010 hPa SSE 16.1 km/h 32.2 km/h 97 % 0 mm 0 W/m2
01:35 3.3 °C 2.9 °C 1010 hPa SE 16.1 km/h 32.2 km/h 97 % 0 mm 0 W/m2
01:40 3.3 °C 2.9 °C 1010 hPa SSE 16.1 km/h 32.2 km/h 97 % 0 mm 0 W/m2
01:45 3.3 °C 2.9 °C 1010 hPa SSE 16.1 km/h 32.2 km/h 97 % 0 mm 0 W/m2
01:55 3.3 °C 2.9 °C 1010 hPa SSE 12.9 km/h 32.2 km/h 97 % 0 mm 0 W/m2
02:05 3.3 °C 2.9 °C 1010 hPa SSE 11.3 km/h 16.1 km/h 97 % 0 mm 0 W/m2
02:10 3.4 °C 2.9 °C 1010 hPa SE 12.9 km/h 32.2 km/h 97 % 0 mm 0 W/m2
02:15 3.4 °C 2.9 °C 1010 hPa SSE 12.9 km/h 32.2 km/h 97 % 0 mm 0 W/m2
02:20 3.4 °C 3 °C 1010 hPa ESE 11.3 km/h 11.3 km/h 97 % 0 mm 0 W/m2
02:25 3.4 °C 3 °C 1010 hPa ESE 9.7 km/h 32.2 km/h 97 % 0 mm 0 W/m2
02:35 3.5 °C 3.1 °C 1010 hPa SE 14.5 km/h 32.2 km/h 97 % 0 mm 0 W/m2
02:40 3.6 °C 3.1 °C 1010 hPa South 14.5 km/h 32.2 km/h 97 % 0 mm 0 W/m2
02:45 3.6 °C 3.1 °C 1010 hPa SE 16.1 km/h 32.2 km/h 97 % 0 mm 0 W/m2
02:50 3.6 °C 3.2 °C 1010 hPa SE 12.9 km/h 12.9 km/h 97 % 0 mm 0 W/m2
02:55 3.6 °C 3.2 °C 1009.7 hPa SE 11.3 km/h 19.3 km/h 97 % 0 mm 0 W/m2
03:00 3.6 °C 3.2 °C 1009.7 hPa SE 11.3 km/h 11.3 km/h 97 % 0 mm 0 W/m2
03:10 3.7 °C 3.2 °C 1009.7 hPa SSE 9.7 km/h 32.2 km/h 97 % 0 mm 0 W/m2
03:15 3.7 °C 3.3 °C 1009.4 hPa SE 12.9 km/h 32.2 km/h 97 % 0 mm 0 W/m2
03:20 3.7 °C 3.3 °C 1009.7 hPa SE 12.9 km/h 32.2 km/h 97 % 0 mm 0 W/m2
03:25 3.7 °C 3.3 °C 1009.4 hPa ESE 12.9 km/h 32.2 km/h 97 % 0 mm 0 W/m2
03:30 3.8 °C 3.3 °C 1009.4 hPa SE 14.5 km/h 14.5 km/h 97 % 0 mm 0 W/m2
03:40 3.8 °C 3.3 °C 1009.4 hPa SE 11.3 km/h 32.2 km/h 97 % 0 mm 0 W/m2
03:45 3.8 °C 3.4 °C 1009.7 hPa SE 9.7 km/h 32.2 km/h 97 % 0 mm 0 W/m2
03:50 3.8 °C 3.4 °C 1009.7 hPa SSE 11.3 km/h 32.2 km/h 97 % 0 mm 0 W/m2
03:55 3.9 °C 3.4 °C 1009.4 hPa SE 11.3 km/h 32.2 km/h 97 % 0 mm 0 W/m2
04:00 3.9 °C 3.4 °C 1009.7 hPa SE 9.7 km/h 9.7 km/h 97 % 0 mm 0 W/m2
04:05 3.9 °C 3.4 °C 1009.7 hPa SE 9.7 km/h 14.5 km/h 97 % 0 mm 0 W/m2
04:15 3.9 °C 3.5 °C 1009.7 hPa SSE 9.7 km/h 32.2 km/h 97 % 0 mm 0 W/m2
04:20 3.9 °C 3.5 °C 1009.7 hPa SSE 9.7 km/h 9.7 km/h 97 % 0 mm 0 W/m2
04:25 4 °C 3.6 °C 1009.7 hPa South 11.3 km/h 11.3 km/h 97 % 0 mm 0 W/m2
04:30 4 °C 3.6 °C 1009.7 hPa South 11.3 km/h 11.3 km/h 97 % 0 mm 0 W/m2
04:35 4 °C 3.6 °C 1009.7 hPa South 11.3 km/h 32.2 km/h 97 % 0 mm 0 W/m2
04:45 4.1 °C 3.6 °C 1009.7 hPa South 6.4 km/h 11.3 km/h 97 % 0 mm 0 W/m2
04:50 4.1 °C 3.6 °C 1009.7 hPa South 6.4 km/h 6.4 km/h 97 % 0 mm 0 W/m2
04:55 4.1 °C 3.7 °C 1009.7 hPa SE 8 km/h 14.5 km/h 97 % 0 mm 0 W/m2
05:00 4.1 °C 3.7 °C 1009.7 hPa SW 9.7 km/h 9.7 km/h 97 % 0 mm 0 W/m2
05:05 4.1 °C 3.7 °C 1009.7 hPa SSW 11.3 km/h 11.3 km/h 97 % 0 mm 0 W/m2
05:10 4.1 °C 3.7 °C 1009.7 hPa SSE 9.7 km/h 32.2 km/h 97 % 0 mm 0 W/m2
05:20 4.2 °C 3.7 °C 1009.7 hPa South 8 km/h 32.2 km/h 97 % 0 mm 0 W/m2
05:25 4.2 °C 3.7 °C 1009.7 hPa SSW 8 km/h 32.2 km/h 97 % 0 mm 0 W/m2
05:30 4.2 °C 3.7 °C 1009.7 hPa SSE 6.4 km/h 32.2 km/h 97 % 0 mm 0 W/m2
05:35 4.2 °C 3.8 °C 1010 hPa SE 6.4 km/h 32.2 km/h 97 % 0 mm 0 W/m2
05:40 4.2 °C 3.8 °C 1010 hPa SSW 8 km/h 8 km/h 97 % 0 mm 0 W/m2
05:50 4.2 °C 3.8 °C 1010 hPa SE 8 km/h 32.2 km/h 97 % 0 mm 0 W/m2
05:55 4.2 °C 3.8 °C 1010 hPa South 8 km/h 32.2 km/h 97 % 0 mm 0 W/m2
06:00 4.2 °C 3.8 °C 1010 hPa SSE 6.4 km/h 6.4 km/h 97 % 0 mm 0 W/m2
06:05 4.2 °C 3.8 °C 1010 hPa SE 8 km/h 11.3 km/h 97 % 0 mm 0 W/m2
06:10 4.2 °C 3.8 °C 1009.7 hPa SSE 8 km/h 8 km/h 97 % 0 mm 0 W/m2
06:15 4.3 °C 3.8 °C 1009.7 hPa SE 9.7 km/h 9.7 km/h 97 % 0 mm 0 W/m2
06:25 4.3 °C 3.8 °C 1010 hPa SSW 9.7 km/h 32.2 km/h 97 % 0 mm 0 W/m2
06:30 4.3 °C 3.8 °C 1009.7 hPa South 9.7 km/h 9.7 km/h 97 % 0 mm 0 W/m2
06:35 4.3 °C 3.8 °C 1010 hPa SE 9.7 km/h 32.2 km/h 97 % 0 mm 0 W/m2
06:40 4.3 °C 3.8 °C 1010 hPa SE 8 km/h 32.2 km/h 97 % 0 mm 0 W/m2
06:45 4.3 °C 3.8 °C 1010 hPa SSE 6.4 km/h 32.2 km/h 97 % 0 mm 0 W/m2
06:55 4.3 °C 3.9 °C 1010.4 hPa ESE 1.6 km/h 6.4 km/h 97 % 0 mm 0 W/m2
07:00 4.3 °C 3.9 °C 1010.4 hPa SE 1.6 km/h 32.2 km/h 97 % 0 mm 0 W/m2
07:05 4.3 °C 3.9 °C 1010.4 hPa SE 1.6 km/h 32.2 km/h 97 % 0 mm 0 W/m2
07:10 4.4 °C 3.9 °C 1010.4 hPa SE 1.6 km/h 32.2 km/h 97 % 0 mm 0 W/m2
07:15 4.4 °C 3.9 °C 1010.4 hPa SE 4.8 km/h 32.2 km/h 97 % 0 mm 0 W/m2
07:20 4.4 °C 3.9 °C 1010.4 hPa SE 4.8 km/h 4.8 km/h 97 % 0 mm 0 W/m2
07:30 4.4 °C 4 °C 1010.4 hPa SSE 3.2 km/h 32.2 km/h 97 % 0 mm 0 W/m2
07:35 4.4 °C 4 °C 1010.4 hPa ESE 1.6 km/h 32.2 km/h 97 % 0 mm 0 W/m2
07:40 4.4 °C 4 °C 1010.4 hPa ESE 1.6 km/h 1.6 km/h 97 % 0 mm 0 W/m2
07:45 4.4 °C 4 °C 1010.4 hPa Calm   3.2 km/h 97 % 0 mm 0 W/m2
07:50 4.4 °C 4 °C 1010.4 hPa ESE 1.6 km/h 32.2 km/h 97 % 0 mm 0 W/m2
08:00 4.5 °C 4.1 °C 1010.4 hPa SSE 3.2 km/h 3.2 km/h 97 % 0 mm 11 W/m2
08:05 4.5 °C 4.1 °C 1010.4 hPa SSE 3.2 km/h 32.2 km/h 97 % 0 mm 12 W/m2
08:10 4.5 °C 4.1 °C 1010.4 hPa SSE 1.6 km/h 1.6 km/h 97 % 0 mm 18 W/m2
08:20 4.6 °C 4.1 °C 1010.4 hPa Calm   32.2 km/h 97 % 0 mm 19 W/m2
08:25 4.6 °C 4.2 °C 1010.4 hPa ESE 1.6 km/h 32.2 km/h 97 % 0 mm 23 W/m2
08:30 4.6 °C 4.2 °C 1010.7 hPa ESE 1.6 km/h 32.2 km/h 97 % 0 mm 28 W/m2
08:35 4.7 °C 4.2 °C 1010.7 hPa ESE 1.6 km/h 32.2 km/h 97 % 0 mm 37 W/m2
08:45 4.8 °C 4.5 °C 1010.7 hPa Calm   32.2 km/h 98 % 0 mm 32 W/m2
08:50 4.8 °C 4.5 °C 1010.7 hPa Calm   32.2 km/h 98 % 0 mm 33 W/m2
08:55 4.7 °C 4.3 °C 1010.7 hPa Calm   32.2 km/h 97 % 0 mm 37 W/m2
09:00 4.7 °C 4.3 °C 1011.1 hPa South 1.6 km/h 1.6 km/h 97 % 0 mm 165 W/m2
09:10 4.9 °C 4.6 °C 1011.1 hPa Calm   32.2 km/h 98 % 0 mm 186 W/m2
09:15 4.9 °C 4.7 °C 1011.1 hPa Calm   32.2 km/h 98 % 0 mm 185 W/m2
09:20 5.1 °C 4.8 °C 1011.1 hPa Calm   32.2 km/h 98 % 0 mm 183 W/m2
09:25 5.1 °C 4.8 °C 1011.1 hPa Calm   32.2 km/h 98 % 0 mm 60 W/m2
09:30 5.2 °C 4.9 °C 1011.1 hPa SW 1.6 km/h 32.2 km/h 98 % 0 mm 162 W/m2
09:40 5.5 °C 5.2 °C 1011.4 hPa SSW 1.6 km/h 32.2 km/h 98 % 0 mm 237 W/m2
09:45 5.8 °C 5.5 °C 1011.4 hPa SSW 1.6 km/h 32.2 km/h 98 % 0 mm 251 W/m2
09:50 6 °C 5.7 °C 1011.4 hPa SSW 1.6 km/h 1.6 km/h 98 % 0 mm 257 W/m2
09:55 6.3 °C 6 °C 1011.4 hPa Calm   32.2 km/h 98 % 0 mm 265 W/m2
10:00 6.6 °C 6.3 °C 1011.7 hPa Calm   32.2 km/h 98 % 0 mm 272 W/m2
10:05 6.8 °C 6.5 °C 1011.7 hPa Calm   32.2 km/h 98 % 0 mm 279 W/m2
10:15 7.2 °C 6.7 °C 1011.7 hPa Calm   32.2 km/h 97 % 0 mm 297 W/m2
10:20 7.3 °C 6.9 °C 1011.7 hPa Calm   32.2 km/h 97 % 0 mm 302 W/m2
10:25 7.6 °C 6.9 °C 1011.7 hPa Calm   32.2 km/h 96 % 0 mm 308 W/m2
10:30 7.7 °C 6.9 °C 1011.7 hPa Calm   32.2 km/h 95 % 0 mm 315 W/m2
10:35 7.8 °C 6.9 °C 1011.7 hPa Calm   32.2 km/h 94 % 0 mm 320 W/m2
10:45 8 °C 6.8 °C 1012.1 hPa East 3.2 km/h 32.2 km/h 92 % 0 mm 341 W/m2
10:50 8.1 °C 6.7 °C 1012.1 hPa East 1.6 km/h 1.6 km/h 91 % 0 mm 348 W/m2
10:55 8.3 °C 6.9 °C 1012.1 hPa Calm   32.2 km/h 91 % 0 mm 359 W/m2
11:00 8.6 °C 7 °C 1012.4 hPa Calm   32.2 km/h 90 % 0 mm 371 W/m2
11:05 8.8 °C 6.9 °C 1012.4 hPa Calm   32.2 km/h 88 % 0 mm 413 W/m2
11:10 9.1 °C 7 °C 1012.4 hPa Calm   32.2 km/h 87 % 0 mm 438 W/m2
11:20 9 °C 6.3 °C 1012.4 hPa SW 6.4 km/h 6.4 km/h 83 % 0 mm 251 W/m2
11:25 8.8 °C 6.3 °C 1012.4 hPa SW 6.4 km/h 8 km/h 84 % 0 mm 308 W/m2
11:30 8.7 °C 6.3 °C 1012.4 hPa SW 6.4 km/h 6.4 km/h 85 % 0 mm 392 W/m2
11:35 8.8 °C 6.4 °C 1012.4 hPa SW 4.8 km/h 32.2 km/h 85 % 0 mm 299 W/m2
11:40 9 °C 6.4 °C 1012.4 hPa WSW 4.8 km/h 32.2 km/h 84 % 0 mm 434 W/m2
11:50 9.4 °C 6.8 °C 1012.4 hPa SSW 4.8 km/h 4.8 km/h 84 % 0 mm 550 W/m2
11:55 9.6 °C 6.4 °C 1012.4 hPa SSW 6.4 km/h 8 km/h 81 % 0 mm 563 W/m2
12:00 9.7 °C 6.8 °C 1012.4 hPa WSW 6.4 km/h 32.2 km/h 82 % 0 mm 239 W/m2
12:05 9.7 °C 6.4 °C 1012.4 hPa South 4.8 km/h 32.2 km/h 80 % 0 mm 547 W/m2
12:10 9.8 °C 6.7 °C 1012.4 hPa SSW 6.4 km/h 6.4 km/h 81 % 0 mm 513 W/m2
12:15 9.9 °C 6.7 °C 1012.4 hPa SSW 6.4 km/h 9.7 km/h 80 % 0 mm 487 W/m2
12:25 9.9 °C 6.4 °C 1012.8 hPa SSW 4.8 km/h 32.2 km/h 79 % 0 mm 213 W/m2
12:30 9.7 °C 6.1 °C 1012.8 hPa SSW 3.2 km/h 32.2 km/h 78 % 0 mm 174 W/m2
12:35 9.6 °C 5.9 °C 1012.8 hPa SSW 1.6 km/h 32.2 km/h 78 % 0 mm 181 W/m2
12:40 9.4 °C 5.8 °C 1012.8 hPa Calm   32.2 km/h 78 % 0 mm 163 W/m2
12:45 9.4 °C 6 °C 1012.8 hPa Calm   32.2 km/h 79 % 0 mm 171 W/m2
12:55 9.6 °C 5.9 °C 1012.8 hPa SSW 1.6 km/h 32.2 km/h 78 % 0 mm 156 W/m2
13:00 9.7 °C 6.1 °C 1012.8 hPa Calm   32.2 km/h 78 % 0 mm 304 W/m2
13:05 9.7 °C 6.4 °C 1013.1 hPa NNE 3.2 km/h 32.2 km/h 80 % 0 mm 128 W/m2
13:10 9.4 °C 6.3 °C 1013.1 hPa NE 6.4 km/h 32.2 km/h 81 % 0 mm 232 W/m2
13:15 9.1 °C 6.2 °C 1013.1 hPa NNE 6.4 km/h 32.2 km/h 82 % 0 mm 120 W/m2
13:20 8.9 °C 6.2 °C 1012.8 hPa NNE 6.4 km/h 6.4 km/h 83 % 0 mm 90 W/m2
13:30 8.6 °C 6.4 °C 1013.1 hPa NNE 4.8 km/h 32.2 km/h 86 % 0 mm 86 W/m2
13:35 8.4 °C 6.2 °C 1013.1 hPa ENE 6.4 km/h 32.2 km/h 86 % 0 mm 98 W/m2
13:40 8.3 °C 6.3 °C 1013.1 hPa ENE 6.4 km/h 6.4 km/h 87 % 0 mm 114 W/m2
13:45 8.2 °C 6.3 °C 1013.1 hPa NE 4.8 km/h 32.2 km/h 88 % 0 mm 132 W/m2
13:50 8.1 °C 6.2 °C 1013.1 hPa ENE 4.8 km/h 32.2 km/h 88 % 0 mm 142 W/m2
14:00 8.1 °C 6.4 °C 1013.4 hPa SE 1.6 km/h 1.6 km/h 89 % 0 mm 125 W/m2
14:05 8.2 °C 6.5 °C 1013.4 hPa ENE 1.6 km/h 8 km/h 89 % 0 mm 330 W/m2
14:10 8.4 °C 6.7 °C 1013.4 hPa NE 3.2 km/h 3.2 km/h 89 % 0 mm 306 W/m2
14:15 8.6 °C 6.7 °C 1013.4 hPa ENE 3.2 km/h 6.4 km/h 88 % 0 mm 294 W/m2
14:20 8.7 °C 6.7 °C 1013.4 hPa ENE 1.6 km/h 1.6 km/h 87 % 0 mm 285 W/m2
14:25 8.8 °C 6.8 °C 1013.4 hPa ENE 3.2 km/h 3.2 km/h 87 % 0 mm 285 W/m2
14:35 9 °C 6.8 °C 1013.8 hPa ENE 1.6 km/h 32.2 km/h 86 % 0 mm 299 W/m2
14:40 9.1 °C 6.8 °C 1013.8 hPa NE 3.2 km/h 32.2 km/h 86 % 0 mm 269 W/m2
14:45 9 °C 6.6 °C 1013.8 hPa ENE 4.8 km/h 32.2 km/h 85 % 0 mm 248 W/m2
14:50 8.7 °C 6.3 °C 1013.8 hPa ESE 4.8 km/h 32.2 km/h 85 % 0 mm 54 W/m2
14:55 8.5 °C 6.3 °C 1014.1 hPa East 3.2 km/h 32.2 km/h 86 % 0 mm 49 W/m2
15:05 8.1 °C 6.1 °C 1014.1 hPa ENE 1.6 km/h 32.2 km/h 87 % 0 mm 62 W/m2
15:10 8.1 °C 6 °C 1014.1 hPa East 1.6 km/h 32.2 km/h 87 % 0 mm 62 W/m2
15:15 8 °C 6.1 °C 1014.1 hPa ESE 1.6 km/h 32.2 km/h 88 % 0 mm 63 W/m2
15:20 7.9 °C 6 °C 1014.1 hPa East 3.2 km/h 3.2 km/h 88 % 0 mm 69 W/m2
15:30 7.7 °C 6 °C 1014.4 hPa East 1.6 km/h 32.2 km/h 89 % 0 mm 111 W/m2
15:35 7.7 °C 6 °C 1014.4 hPa ESE 1.6 km/h 32.2 km/h 89 % 0 mm 120 W/m2
15:40 7.7 °C 5.9 °C 1014.4 hPa ESE 3.2 km/h 3.2 km/h 89 % 0 mm 70 W/m2
15:45 7.7 °C 5.9 °C 1014.4 hPa ESE 1.6 km/h 32.2 km/h 89 % 0 mm 33 W/m2
15:55 7.5 °C 5.8 °C 1014.8 hPa Calm   32.2 km/h 89 % 0 mm 23 W/m2
16:00 7.4 °C 5.7 °C 1014.8 hPa Calm   32.2 km/h 89 % 0 mm 21 W/m2
16:05 7.3 °C 5.6 °C 1014.8 hPa Calm   32.2 km/h 89 % 0 mm 19 W/m2
16:15 7.1 °C 5.4 °C 1015.1 hPa Calm   32.2 km/h 89 % 0 mm 23 W/m2
16:20 6.9 °C 5.3 °C 1015.1 hPa Calm   32.2 km/h 89 % 0 mm 32 W/m2
16:25 6.9 °C 5.4 °C 1015.1 hPa Calm   32.2 km/h 90 % 0 mm 32 W/m2
16:30 6.8 °C 5.3 °C 1015.1 hPa Calm   32.2 km/h 90 % 0 mm 28 W/m2
16:35 6.8 °C 5.3 °C 1015.1 hPa Calm   32.2 km/h 90 % 0 mm 19 W/m2
16:45 6.7 °C 5.3 °C 1015.5 hPa Calm   32.2 km/h 91 % 0 mm 7 W/m2
16:50 6.6 °C 5.2 °C 1015.5 hPa Calm   32.2 km/h 91 % 0 mm 7 W/m2
16:55 6.5 °C 5.1 °C 1015.5 hPa Calm   32.2 km/h 91 % 0 mm 5 W/m2
17:00 6.4 °C 5 °C 1015.5 hPa Calm   32.2 km/h 91 % 0 mm 0 W/m2
17:05 6.3 °C 4.9 °C 1015.8 hPa Calm   32.2 km/h 91 % 0 mm 0 W/m2
17:10 6.2 °C 4.8 °C 1015.8 hPa Calm   32.2 km/h 91 % 0 mm 0 W/m2
17:20 5.8 °C 4.4 °C 1015.8 hPa Calm   32.2 km/h 91 % 0 mm 0 W/m2
17:25 5.7 °C 4.4 °C 1015.8 hPa Calm   32.2 km/h 92 % 0 mm 0 W/m2
17:30 5.5 °C 4.3 °C 1016.1 hPa Calm   32.2 km/h 92 % 0 mm 0 W/m2
17:35 5.3 °C 4.1 °C 1016.1 hPa Calm   32.2 km/h 92 % 0 mm 0 W/m2
17:40 5.1 °C 3.9 °C 1016.1 hPa Calm   32.2 km/h 92 % 0 mm 0 W/m2
17:50 4.9 °C 3.7 °C 1016.5 hPa Calm   32.2 km/h 92 % 0 mm 0 W/m2
17:55 4.7 °C 3.6 °C 1016.5 hPa Calm   32.2 km/h 92 % 0 mm 0 W/m2
18:00 4.6 °C 3.4 °C 1016.5 hPa Calm   32.2 km/h 92 % 0 mm 0 W/m2
18:05 4.4 °C 3.4 °C 1016.5 hPa Calm   32.2 km/h 93 % 0 mm 0 W/m2
18:15 4.4 °C 3.5 °C 1016.8 hPa Calm   32.2 km/h 94 % 0 mm 0 W/m2
18:20 4.3 °C 3.4 °C 1016.8 hPa Calm   32.2 km/h 94 % 0 mm 0 W/m2
18:25 4.3 °C 3.4 °C 1016.8 hPa Calm   32.2 km/h 94 % 0 mm 0 W/m2
18:30 4.4 °C 3.5 °C 1016.8 hPa Calm   32.2 km/h 94 % 0 mm 0 W/m2
18:35 4.4 °C 3.5 °C 1017.2 hPa Calm   32.2 km/h 94 % 0 mm 0 W/m2
18:45 4.4 °C 3.7 °C 1017.2 hPa Calm   32.2 km/h 95 % 0 mm 0 W/m2
18:50 4.5 °C 3.8 °C 1017.2 hPa Calm   32.2 km/h 95 % 0 mm 0 W/m2
18:55 4.6 °C 3.8 °C 1017.2 hPa Calm   32.2 km/h 95 % 0 mm 0 W/m2
19:00 4.7 °C 3.9 °C 1017.2 hPa Calm   32.2 km/h 95 % 0 mm 0 W/m2
19:10 4.7 °C 4 °C 1017.5 hPa Calm   32.2 km/h 95 % 0 mm 0 W/m2
19:15 4.7 °C 3.9 °C 1017.5 hPa Calm   32.2 km/h 95 % 0 mm 0 W/m2
19:20 4.7 °C 3.9 °C 1017.5 hPa Calm   32.2 km/h 95 % 0 mm 0 W/m2
19:25 4.7 °C 3.9 °C 1017.8 hPa Calm   32.2 km/h 95 % 0 mm 0 W/m2
19:30 4.7 °C 3.9 °C 1017.8 hPa Calm   32.2 km/h 95 % 0 mm 0 W/m2
19:35 4.7 °C 3.9 °C 1017.8 hPa Calm   32.2 km/h 95 % 0 mm 0 W/m2
19:45 4.6 °C 3.9 °C 1017.8 hPa Calm   32.2 km/h 95 % 0 mm 0 W/m2
19:50 4.6 °C 3.9 °C 1017.8 hPa Calm   32.2 km/h 95 % 0 mm 0 W/m2
19:55 4.5 °C 3.8 °C 1017.8 hPa Calm   32.2 km/h 95 % 0 mm 0 W/m2
20:05 4.3 °C 3.6 °C 1018.2 hPa Calm   32.2 km/h 95 % 0 mm 0 W/m2
20:10 4.2 °C 3.5 °C 1018.2 hPa Calm   32.2 km/h 95 % 0 mm 0 W/m2
20:15 4.2 °C 3.7 °C 1018.2 hPa Calm   32.2 km/h 96 % 0 mm 0 W/m2
20:20 4.2 °C 3.7 °C 1018.2 hPa Calm   32.2 km/h 96 % 0 mm 0 W/m2
20:25 4.3 °C 3.7 °C 1018.2 hPa NW 1.6 km/h 32.2 km/h 96 % 0 mm 0 W/m2
20:35 4.4 °C 3.9 °C 1018.5 hPa NW 3.2 km/h 32.2 km/h 96 % 0 mm 0 W/m2
20:40 4.5 °C 3.9 °C 1018.5 hPa WNW 3.2 km/h 32.2 km/h 96 % 0 mm 0 W/m2
20:45 4.5 °C 3.9 °C 1018.5 hPa NW 4.8 km/h 32.2 km/h 96 % 0 mm 0 W/m2
20:50 4.6 °C 4 °C 1018.5 hPa NW 4.8 km/h 4.8 km/h 96 % 0 mm 0 W/m2
20:55 4.6 °C 3.8 °C 1018.5 hPa NW 3.2 km/h 32.2 km/h 95 % 0 mm 0 W/m2
21:00 4.6 °C 3.8 °C 1018.5 hPa NW 1.6 km/h 1.6 km/h 95 % 0 mm 0 W/m2
21:10 4.4 °C 3.7 °C 1018.8 hPa Calm   32.2 km/h 95 % 0 mm 0 W/m2
21:15 4.4 °C 3.5 °C 1018.8 hPa Calm   32.2 km/h 94 % 0 mm 0 W/m2
21:20 4.3 °C 3.4 °C 1018.8 hPa Calm   32.2 km/h 94 % 0 mm 0 W/m2
21:25 4.2 °C 3.3 °C 1018.8 hPa Calm   32.2 km/h 94 % 0 mm 0 W/m2
21:30 4.1 °C 3.2 °C 1018.8 hPa Calm   32.2 km/h 94 % 0 mm 0 W/m2
21:40 3.8 °C 2.9 °C 1019.2 hPa Calm   32.2 km/h 94 % 0 mm 0 W/m2
21:45 3.6 °C 2.7 °C 1019.2 hPa Calm   32.2 km/h 94 % 0 mm 0 W/m2
21:50 3.6 °C 2.9 °C 1019.2 hPa ENE 1.6 km/h 32.2 km/h 95 % 0 mm 0 W/m2
21:55 3.7 °C 2.9 °C 1019.5 hPa ENE 1.6 km/h 32.2 km/h 95 % 0 mm 0 W/m2
22:00 3.7 °C 2.9 °C 1019.5 hPa Calm   32.2 km/h 95 % 0 mm 0 W/m2
22:05 3.6 °C 2.9 °C 1019.5 hPa Calm   32.2 km/h 95 % 0 mm 0 W/m2
22:15 3.6 °C 2.9 °C 1019.5 hPa North 1.6 km/h 32.2 km/h 95 % 0 mm 0 W/m2
22:20 3.8 °C 3.1 °C 1019.5 hPa North 3.2 km/h 3.2 km/h 95 % 0 mm 0 W/m2
22:25 3.8 °C 3.1 °C 1019.9 hPa NNW 1.6 km/h 32.2 km/h 95 % 0 mm 0 W/m2
22:30 3.9 °C 3.2 °C 1019.9 hPa NE 3.2 km/h 3.2 km/h 95 % 0 mm 0 W/m2
22:35 3.9 °C 3.2 °C 1019.9 hPa NNE 1.6 km/h 32.2 km/h 95 % 0 mm 0 W/m2
22:45 4 °C 3.1 °C 1020.2 hPa North 1.6 km/h 32.2 km/h 94 % 0 mm 0 W/m2
22:50 4 °C 3.1 °C 1020.2 hPa Calm   32.2 km/h 94 % 0 mm 0 W/m2
22:55 3.9 °C 3 °C 1020.5 hPa Calm   32.2 km/h 94 % 0 mm 0 W/m2
23:00 3.8 °C 2.9 °C 1020.5 hPa Calm   32.2 km/h 94 % 0 mm 0 W/m2
23:10 3.7 °C 2.8 °C 1020.5 hPa Calm   32.2 km/h 94 % 0 mm 0 W/m2
23:15 3.7 °C 2.8 °C 1020.5 hPa Calm   32.2 km/h 94 % 0 mm 0 W/m2
23:20 3.7 °C 2.8 °C 1020.5 hPa Calm   32.2 km/h 94 % 0 mm 0 W/m2
23:30 3.7 °C 2.8 °C 1020.9 hPa Calm   32.2 km/h 94 % 0 mm 0 W/m2
23:35 3.7 °C 2.8 °C 1020.9 hPa Calm   32.2 km/h 94 % 0 mm 0 W/m2
23:40 3.6 °C 2.7 °C 1020.9 hPa Calm   32.2 km/h 94 % 0 mm 0 W/m2
23:45 3.6 °C 2.7 °C 1020.9 hPa Calm   32.2 km/h 94 % 0 mm 0 W/m2
23:55 3.6 °C 2.7 °C 1020.9 hPa Calm   32.2 km/h 94 % 0 mm 0 W/m2
Delerius-Weather
Compliments of Weather Underground - 2 mb

Data updates at regular intervals.